Wind_Speed
25 24 23 22 21 22 21 22 22 21 21 21 19 19 19 20 20 21 21 21 20 20 20 21 21 22 22 23 24 24 25 25 25 24 25 27 26 26 27 28 29 29 30
24 23 23 22 21 21 21 21 21 21 20 19 18 18 18 19 19 19 19 19 19 19 19 20 20 21 21 22 22 24 25 24 24 25 26 27 27 27 27 27 28 29 29
23 22 22 21 22 21 20 19 19 19 18 18 18 18 18 19 19 18 18 18 18 18 18 18 19 20 22 22 22 23 23 23 23 23 24 25 25 26 26 26 26 27 28
21 20 20 20 20 19 19 19 18 17 17 18 18 18 18 18 18 17 17 17 17 16 16 17 19 20 21 21 22 22 23 23 24 24 24 24 25 26 26 26 26 27 27
19 19 20 19 18 17 17 18 17 17 17 18 17 17 17 17 18 17 16 16 16 16 16 17 18 19 20 20 21 22 23 23 24 23 23 24 24 25 25 26 27 27 28
20 19 19 18 18 17 16 16 16 16 17 17 17 17 16 17 17 17 16 16 17 18 18 18 19 19 19 20 20 21 21 22 23 24 24 24 24 24 24 25 26 26 27
19 19 18 18 18 17 16 16 17 17 16 16 16 15 15 16 16 16 16 16 17 18 19 20 20 19 19 20 21 21 21 21 22 23 23 23 23 24 24 24 25 25 26
18 18 18 18 17 16 16 16 16 15 14 14 15 15 14 14 15 15 16 16 17 18 19 19 20 20 21 21 21 21 20 20 20 20 20 21 22 23 23 23 23 25 25
18 17 18 17 16 15 15 15 15 14 14 14 14 15 14 14 15 16 16 16 17 18 19 19 19 20 19 19 19 18 18 18 18 18 19 19 20 21 21 22 22 24 24
17 17 17 16 15 14 14 13 13 13 13 13 14 15 15 15 15 16 17 17 18 18 19 19 19 19 18 18 17 17 16 16 16 16 18 19 20 20 21 22 22 23 23
16 16 15 14 13 13 12 11 12 13 13 14 15 15 15 16 17 17 17 18 18 17 18 18 18 18 18 17 17 16 16 16 16 17 17 18 19 19 20 21 22 22 23
15 14 13 12 12 11 11 11 11 12 12 13 14 15 15 15 16 16 17 17 17 17 17 18 18 18 18 17 17 16 15 15 16 16 17 18 19 19 19 20 20 21 22
13 12 11 11 11 11 10 10 10 11 12 14 14 14 14 15 15 15 16 16 17 17 17 17 17 18 17 17 16 16 16 16 17 17 18 19 19 19 19 20 20 20 21
12 11 10 10 10 10 10 9 10 11 12 13 14 13 14 14 16 16 16 16 17 17 17 18 18 18 18 17 17 17 17 18 18 18 18 19 19 19 19 20 20 21 21
11 10 9 9 9 9 9 9 9 11 12 13 13 13 15 16 17 17 17 17 17 17 18 18 18 18 18 18 18 18 18 18 18 18 19 19 19 19 20 20 20 21 21
11 10 9 9 9 9 9 9 9 10 12 13 13 14 15 16 17 16 16 17 17 17 18 19 18 18 18 18 18 18 18 19 19 18 18 18 19 19 19 20 20 21 22
9 9 8 8 8 9 9 9 10 10 11 12 13 14 15 16 17 17 18 18 19 19 20 20 20 19 18 19 19 19 19 20 19 20 19 19 19 19 20 20 21 22 22
8 8 8 8 8 9 9 9 9 10 12 13 13 15 16 17 17 18 19 19 19 20 20 21 21 21 21 20 20 20 20 21 21 21 21 20 20 20 21 22 22 22 22
7 7 7 7 8 9 9 10 10 11 12 13 14 15 16 17 18 19 19 20 20 21 21 21 22 21 21 21 22 22 22 22 22 22 22 22 22 22 22 22 23 23 23
7 7 7 8 9 9 10 10 11 11 12 13 14 15 17 18 19 19 20 21 21 21 21 22 22 22 22 22 22 23 23 23 23 23 23 23 24 24 23 23 24 24 24
7 6 7 8 9 9 10 11 12 12 13 14 15 16 17 18 19 19 20 21 21 21 22 22 22 22 22 22 22 22 23 23 23 23 23 23 24 25 25 24 24 24 24
6 6 7 8 9 10 10 11 11 12 14 15 16 16 17 18 19 20 21 22 22 22 22 23 23 23 23 23 23 23 22 23 23 24 24 24 24 24 24 23 23 23 24
6 6 8 8 9 10 10 11 12 13 15 16 16 17 18 19 20 20 21 22 22 23 23 24 24 24 24 24 24 23 23 23 24 24 24 24 24 23 24 24 24 24 24
5 7 7 8 9 10 11 12 13 14 15 16 17 17 18 19 20 21 21 22 23 24 24 24 24 25 25 25 25 25 25 25 25 25 25 25 25 24 24 25 25 25 25
5 6 7 8 9 10 11 12 13 14 15 16 17 18 19 19 20 21 22 23 24 25 25 25 25 26 27 27 27 26 26 26 26 26 26 26 25 24 24 25 25 25 25
5 6 7 8 8 10 11 12 13 14 16 17 17 18 19 20 21 22 23 24 25 25 26 26 27 27 28 28 28 27 27 27 28 27 26 25 25 25 25 25 25 25 25
Wind_Direction
303 302 304 302 300 300 302 302 300 300 301 302 300 299 297 298 299 297 295 295 292 289 288 284 281 279 276 273 273 272 271 270 268 266 267 266 269 267 264 260 257 257 257
302 302 303 303 301 301 302 301 300 301 301 301 301 301 300 302 302 301 297 295 296 294 291 286 284 282 278 277 276 275 274 271 269 268 267 267 268 267 265 263 259 256 257
302 302 304 304 303 302 301 301 302 301 299 300 301 300 301 304 303 300 299 298 299 295 293 290 286 283 280 278 277 277 275 272 271 269 268 268 267 266 264 263 261 260 259
304 304 306 308 306 303 303 303 301 301 300 300 300 301 301 303 305 300 298 300 300 299 297 293 290 287 284 280 280 280 277 273 272 272 270 268 266 265 264 263 261 262 262
306 306 307 309 310 309 307 308 305 301 301 300 300 300 302 303 304 304 300 299 300 302 303 299 295 293 289 287 286 283 279 276 273 274 272 269 267 264 264 263 263 262 262
308 308 309 309 311 311 310 309 308 304 301 301 301 302 304 304 304 303 305 306 304 302 301 302 302 299 296 292 289 288 285 279 275 276 275 272 271 270 267 266 265 263 263
310 311 310 309 310 312 312 310 312 312 309 307 307 305 307 310 306 304 304 301 300 300 300 303 304 300 300 296 292 290 287 284 279 279 276 273 271 270 269 269 268 266 265
309 309 310 310 312 314 313 312 313 315 316 314 312 309 309 313 313 312 309 303 302 302 304 306 304 300 299 297 295 294 291 288 284 281 277 275 273 270 269 268 268 269 268
309 310 311 311 312 312 312 314 314 314 315 316 319 314 312 315 319 313 315 313 310 307 308 310 311 308 305 302 300 298 296 293 287 283 279 277 276 273 270 269 272 273 272
310 312 314 315 315 312 310 313 315 317 318 319 321 320 318 318 319 320 317 316 316 313 312 315 316 315 311 306 301 299 297 296 290 285 283 280 280 278 275 274 274 275 274
313 315 316 316 317 317 317 316 317 319 320 319 321 322 323 321 318 321 319 319 320 320 317 317 318 318 316 310 304 302 302 300 297 292 289 286 285 284 281 278 277 276 277
317 317 317 319 323 322 321 324 325 326 326 324 323 323 323 322 323 322 321 321 323 322 320 319 317 318 318 317 314 311 306 303 301 298 295 291 289 286 286 284 280 279 279
322 320 318 321 326 327 326 330 329 329 328 326 325 326 327 329 329 328 325 324 325 326 326 324 321 320 319 319 316 312 310 308 306 303 299 296 293 290 287 285 284 284 283
323 321 318 324 329 330 327 328 333 335 334 333 331 331 331 332 334 331 330 329 328 329 329 327 324 322 320 318 317 315 312 309 308 306 302 299 296 292 289 288 287 287 285
321 322 322 325 329 333 332 332 336 337 337 335 334 334 332 332 332 331 331 330 330 329 328 327 326 325 323 318 316 315 313 310 309 306 304 302 299 296 293 291 288 286 287
325 323 322 327 331 339 341 335 336 336 335 336 336 336 335 336 337 336 334 334 334 334 331 329 328 326 324 323 321 319 316 314 312 310 308 306 303 300 297 294 291 289 287
328 328 326 330 337 343 343 336 337 341 340 339 339 339 339 339 340 339 337 336 335 334 332 331 331 328 326 324 322 320 318 316 315 312 309 307 305 302 300 298 296 293 290
331 333 333 335 339 343 341 337 341 343 342 341 340 341 341 341 341 339 338 338 338 336 334 333 332 330 327 325 323 323 321 318 315 312 310 308 304 301 299 298 297 295 294
334 336 340 343 345 345 346 346 349 348 344 342 340 340 342 342 342 341 340 339 338 336 334 332 330 328 327 326 324 322 321 318 315 314 311 307 305 301 299 298 298 298 296
340 341 342 346 350 349 350 349 347 347 345 343 343 343 343 343 343 343 342 341 340 338 336 335 333 331 330 328 326 325 323 321 317 315 312 309 307 304 302 301 301 300 298
338 343 346 346 347 349 348 344 343 345 344 344 344 344 345 345 345 346 345 345 343 342 340 340 339 337 336 335 332 330 327 324 322 319 316 313 310 307 304 303 302 302 300
341 342 344 347 348 346 343 341 344 345 345 345 346 347 347 347 348 348 347 346 345 344 343 342 341 339 337 336 334 332 331 328 326 324 321 318 315 311 308 306 304 302 300
336 342 346 347 345 343 341 343 345 346 346 346 347 347 347 346 345 345 346 346 346 345 344 343 341 339 338 337 335 332 332 332 330 327 323 321 318 314 312 309 307 304 302
326 335 341 344 344 345 346 348 349 349 349 349 348 348 348 348 348 349 348 348 346 345 345 344 342 341 340 339 337 334 331 330 330 329 327 324 321 318 315 313 310 307 304
323 331 338 341 342 345 349 350 350 350 350 350 349 348 348 348 349 349 348 348 348 347 346 345 344 342 342 341 339 336 334 332 331 329 328 327 325 322 320 317 314 312 309
322 330 335 338 340 343 348 350 350 350 349 349 348 348 348 349 349 348 348 349 349 348 347 346 344 342 341 341 339 338 336 334 332 331 330 329 327 325 324 322 318 315 314
Height
5755 5753 5750 5748 5746 5744 5743 5740 5738 5736 5734 5731 5729 5728 5726 5725 5723 5721 5719 5718 5716 5714 5713 5712 5711 5711 5711 5711 5711 5711 5711 5711 5712 5712 5712 5712 5712 5713 5713 5714 5715 5717 5719
5750 5748 5746 5743 5741 5739 5737 5736 5733 5731 5729 5727 5725 5724 5722 5720 5718 5716 5715 5713 5711 5709 5708 5707 5706 5705 5705 5705 5705 5705 5704 5704 5705 5705 5705 5705 5705 5705 5706 5706 5708 5709 5711
5745 5743 5741 5739 5736 5734 5732 5730 5729 5726 5725 5723 5721 5720 5718 5716 5714 5712 5710 5708 5706 5705 5703 5702 5701 5701 5700 5699 5699 5698 5698 5697 5697 5698 5698 5698 5698 5698 5698 5699 5700 5701 5702
5740 5738 5736 5734 5731 5729 5727 5726 5723 5722 5720 5719 5717 5715 5713 5711 5709 5707 5706 5704 5702 5701 5699 5698 5696 5695 5694 5693 5692 5691 5691 5691 5691 5690 5691 5690 5690 5690 5691 5691 5693 5693 5695
5735 5733 5731 5729 5726 5724 5722 5721 5719 5717 5716 5714 5713 5711 5709 5707 5705 5703 5702 5700 5699 5697 5695 5694 5692 5691 5689 5688 5687 5686 5685 5684 5684 5684 5683 5683 5683 5683 5683 5684 5685 5686 5687
5731 5729 5727 5724 5722 5720 5718 5716 5715 5713 5712 5710 5708 5706 5704 5703 5701 5699 5698 5696 5694 5693 5692 5690 5688 5686 5684 5683 5682 5680 5679 5678 5677 5677 5677 5676 5676 5676 5676 5676 5677 5678 5679
5726 5724 5722 5720 5718 5716 5714 5713 5711 5708 5707 5706 5704 5702 5700 5698 5697 5695 5694 5692 5691 5690 5688 5686 5684 5682 5680 5678 5676 5675 5673 5672 5671 5670 5670 5669 5669 5669 5669 5669 5670 5670 5671
5722 5720 5718 5716 5714 5712 5710 5709 5707 5705 5703 5702 5701 5699 5697 5695 5694 5692 5690 5688 5686 5685 5684 5681 5679 5677 5675 5673 5671 5669 5667 5666 5665 5664 5663 5663 5662 5662 5662 5662 5662 5663 5663
5717 5716 5714 5711 5710 5708 5707 5705 5704 5702 5701 5699 5698 5696 5694 5693 5691 5689 5687 5685 5683 5681 5679 5677 5674 5672 5670 5668 5666 5664 5662 5661 5659 5658 5658 5657 5656 5656 5656 5656 5655 5656 5656
5714 5712 5710 5708 5706 5705 5703 5702 5701 5700 5699 5697 5696 5694 5692 5690 5688 5686 5684 5682 5680 5677 5675 5673 5670 5668 5665 5663 5661 5659 5657 5656 5655 5654 5653 5652 5651 5650 5649 5649 5649 5649 5648
5710 5708 5707 5705 5704 5702 5701 5700 5699 5697 5696 5695 5694 5692 5690 5688 5686 5683 5681 5679 5677 5674 5672 5669 5666 5664 5661 5659 5656 5654 5653 5651 5650 5649 5648 5647 5646 5645 5644 5643 5642 5642 5641
5707 5706 5704 5703 5701 5700 5699 5698 5697 5695 5694 5693 5691 5690 5688 5686 5683 5681 5678 5676 5673 5671 5668 5665 5663 5660 5657 5655 5652 5650 5648 5647 5645 5644 5643 5641 5640 5639 5638 5637 5636 5635 5634
5705 5703 5702 5701 5700 5698 5697 5696 5695 5694 5693 5691 5690 5688 5686 5683 5681 5678 5676 5673 5670 5667 5665 5662 5659 5657 5654 5651 5649 5646 5644 5642 5641 5639 5637 5636 5635 5633 5632 5631 5629 5628 5628
5703 5702 5700 5699 5698 5697 5696 5695 5694 5693 5691 5689 5688 5686 5684 5681 5678 5676 5673 5670 5668 5665 5662 5659 5656 5653 5651 5648 5645 5643 5640 5638 5636 5634 5632 5630 5629 5627 5626 5624 5623 5622 5621
5702 5700 5699 5698 5697 5696 5694 5693 5692 5691 5689 5688 5686 5683 5681 5679 5676 5673 5670 5668 5665 5662 5659 5656 5653 5650 5647 5644 5642 5639 5636 5634 5632 5629 5627 5625 5623 5621 5620 5618 5616 5615 5614
5700 5699 5698 5697 5696 5695 5693 5692 5691 5690 5688 5686 5684 5682 5679 5677 5674 5671 5668 5665 5662 5659 5656 5653 5649 5646 5643 5640 5637 5634 5632 5629 5626 5624 5622 5619 5617 5615 5613 5611 5610 5609 5607
5699 5698 5697 5696 5695 5693 5692 5691 5690 5689 5687 5685 5683 5680 5678 5675 5672 5669 5666 5662 5659 5656 5652 5649 5645 5642 5639 5636 5633 5630 5627 5624 5621 5619 5616 5614 5612 5610 5607 5605 5603 5601 5600
5698 5697 5696 5695 5694 5693 5691 5690 5689 5687 5686 5683 5681 5679 5676 5673 5670 5667 5663 5660 5656 5653 5649 5646 5642 5638 5635 5632 5628 5625 5622 5619 5616 5613 5611 5608 5606 5604 5601 5599 5597 5594 5592
5697 5696 5695 5694 5693 5692 5690 5689 5687 5686 5684 5682 5680 5677 5674 5671 5668 5664 5661 5657 5654 5650 5646 5642 5638 5634 5630 5627 5624 5621 5617 5614 5611 5608 5605 5602 5600 5597 5595 5592 5590 5587 5585
5697 5696 5695 5694 5693 5692 5690 5688 5687 5685 5683 5681 5679 5676 5672 5669 5666 5662 5658 5654 5651 5646 5642 5638 5634 5630 5626 5623 5619 5616 5612 5609 5605 5602 5599 5596 5593 5590 5588 5585 5583 5580 5578
5697 5696 5695 5694 5693 5692 5690 5688 5686 5684 5682 5680 5677 5674 5671 5667 5664 5660 5656 5652 5648 5644 5639 5635 5631 5626 5623 5619 5615 5611 5607 5603 5600 5596 5593 5590 5587 5583 5581 5578 5575 5573 5570
5696 5695 5694 5693 5692 5691 5689 5687 5685 5683 5681 5678 5676 5672 5669 5666 5662 5658 5654 5650 5646 5641 5637 5632 5628 5624 5619 5615 5611 5607 5603 5599 5595 5591 5587 5584 5580 5577 5574 5571 5568 5565 5563
5695 5695 5694 5693 5691 5690 5688 5686 5684 5682 5679 5677 5674 5671 5667 5664 5660 5656 5652 5648 5644 5639 5634 5630 5625 5621 5616 5612 5607 5602 5598 5594 5590 5586 5582 5578 5574 5570 5567 5564 5561 5558 5555
5694 5694 5693 5692 5690 5689 5687 5685 5683 5681 5678 5676 5673 5670 5666 5662 5659 5654 5650 5646 5641 5637 5632 5627 5622 5618 5613 5608 5603 5598 5594 5589 5585 5581 5576 5572 5568 5564 5561 5557 5554 5551 5547
5693 5692 5692 5691 5689 5688 5686 5684 5682 5680 5677 5675 5672 5668 5665 5661 5657 5653 5648 5644 5639 5634 5630 5625 5620 5615 5610 5604 5599 5594 5589 5584 5580 5576 5571 5567 5563 5558 5555 5551 5547 5543 5540
5691 5691 5690 5689 5688 5687 5686 5684 5681 5679 5676 5673 5670 5667 5663 5659 5655 5651 5647 5642 5638 5633 5628 5622 5617 5612 5606 5601 5595 5590 5585 5580 5575 5570 5566 5562 5557 5553 5549 5544 5540 5537 5533